(195369) = 2002 FZ29 = 1995 SA46

Discovered at Socorro on 2002-03-20 by LINEAR.

Orbit

Orbit type: Main Belt

Note: WebGL enabled browser required.

epoch2024-03-31.0
epoch JD2460400.5
perihelion date2023-04-20.73328
perihelion JD2460055.23328
argument of perihelion (°)137.33089
ascending node (°)347.62369
inclination (°)8.58405
eccentricity0.0847070
perihelion distance (AU)2.4312939
Tisserand w.r.t. Jupiter3.4
ΔV w.r.t. Earth (km/sec)10.1
semimajor axis (AU)2.6563012
mean anomaly (°)78.60367
mean daily motion (°/day)0.22766070
aphelion distance (AU)2.881
period (years)4.33
P-vector [x]-0.57455424
P-vector [y]0.70492990
P-vector [z]0.41588611
Q-vector [x]-0.81784105
Q-vector [y]-0.47461362
Q-vector [z]-0.32538888
absolute magnitude16.36
phase slope0.15
uncertainty0
referenceE2024-G04
observations used315
oppositions15
arc length (days)10415
first opposition used1995
last opposition used2024
residual rms (arc-secs)0.77
perturbers coarse indicatorM-v
perturbers precise indicator003Ek
first observation date used1995-09-26.0
last observation date used2024-04-01.0
computer nameMPCLINUX
JD of orbit computation2456612.836605
perihelion JD uncertainty (days)2.7829E-04
argument of perihelion uncertainty (°)8.3502E-05
ascending node uncertainty (°)5.2749E-05
inclination uncertainty (°)1.2180E-05
eccentricity uncertainty 7.7573E-08
perihelion distance uncertainty (AU)2.1277E-07
Minimum Orbit Intersection Distances (in AU)
for orbit epoch: 2460400.5, reference: E2024-G04
Mercury2.09472
Venus1.71431
Earth1.45402
Mars0.78146
Jupiter2.15455
Saturn6.60535
Uranus15.9484
Neptune27.115

Observations

320 total observations over interval: 1995 09 26.17737 – 2023 01 10.287382
These data are available for download (format description).

Date (UT) J2000 RA J2000 Dec Magn Location Ref
1995 09 26.17737 22 38 42.91 -08 58 00.9 20.5 V 691 – Steward Observatory, Kitt Peak-Spacewatch MPC 25868
1995 09 26.19854 22 38 41.93 -08 58 03.5   691 – Steward Observatory, Kitt Peak-Spacewatch MPC 25868
1995 09 26.21966 22 38 40.97 -08 58 04.5   691 – Steward Observatory, Kitt Peak-Spacewatch MPC 25868
1995 10 02.23449 22 34 34.21 -09 04 41.0   691 – Steward Observatory, Kitt Peak-Spacewatch MPC 25868
1995 10 02.25586 22 34 33.41 -09 04 42.1 21.1 V 691 – Steward Observatory, Kitt Peak-Spacewatch MPC 25868
1995 10 02.27708 22 34 32.58 -09 04 43.1   691 – Steward Observatory, Kitt Peak-Spacewatch MPC 25868
2002 03 13.33191 12 01 58.84 -02 54 53.6 19.5   704 – Lincoln Laboratory ETS, New Mexico MPS 55074
2002 03 13.35253 12 01 57.61 -02 54 51.7 19.8   704 – Lincoln Laboratory ETS, New Mexico MPS 55074
2002 03 13.36929 12 01 56.65 -02 54 50.2 19.8   704 – Lincoln Laboratory ETS, New Mexico MPS 55074
2002 03 13.38430 12 01 55.76 -02 54 48.2 20.2   704 – Lincoln Laboratory ETS, New Mexico MPS 55074
2002 03 13.39984 12 01 54.83 -02 54 47.2 19.9   704 – Lincoln Laboratory ETS, New Mexico MPS 55074
2002 03 13.48130 12 01 50.19 -02 54 37.2 19.8   644 – Palomar Mountain/NEAT MPS 55074
2002 03 13.49203 12 01 49.55 -02 54 35.8 20.0   644 – Palomar Mountain/NEAT MPS 55074
2002 03 13.50260 12 01 48.93 -02 54 34.6 20.1   644 – Palomar Mountain/NEAT MPS 55074
2002 03 20.31115 11 55 16.28 -02 39 47.6 19.4   704 – Lincoln Laboratory ETS, New Mexico MPS 55074
2002 03 20.32368 11 55 15.58 -02 39 46.6 19.1   704 – Lincoln Laboratory ETS, New Mexico MPS 55074
2002 03 20.33682 11 55 14.78 -02 39 44.8 19.3   704 – Lincoln Laboratory ETS, New Mexico MPS 55074
2002 03 21.33614 11 54 16.73 -02 37 24.1 19.2   704 – Lincoln Laboratory ETS, New Mexico MPS 55074
2002 03 21.34881 11 54 16.02 -02 37 22.2 19.1   704 – Lincoln Laboratory ETS, New Mexico MPS 55074
2002 03 21.36143 11 54 15.31 -02 37 19.8 20.0   704 – Lincoln Laboratory ETS, New Mexico MPS 55074
2002 04 04.21235 11 41 37.94 -02 04 43.4 19.5   644 – Palomar Mountain/NEAT MPS 55074
2002 04 04.23340 11 41 36.86 -02 04 40.6 19.4   644 – Palomar Mountain/NEAT MPS 55074
2002 04 04.25442 11 41 35.78 -02 04 38.0 19.7   644 – Palomar Mountain/NEAT MPS 55074
2002 04 12.24429 11 35 36.66 -01 49 07.1 19.7   704 – Lincoln Laboratory ETS, New Mexico MPS 55074
2002 04 12.25850 11 35 35.97 -01 49 07.4 20.1   704 – Lincoln Laboratory ETS, New Mexico MPS 55074
2002 04 12.27248 11 35 35.42 -01 49 05.0 19.3   704 – Lincoln Laboratory ETS, New Mexico MPS 55074
2002 04 12.28645 11 35 34.86 -01 49 03.5 19.3   704 – Lincoln Laboratory ETS, New Mexico MPS 55074
2004 10 10.20473 00 42 36.13 +11 23 36.2 19.5   704 – Lincoln Laboratory ETS, New Mexico MPS 158908
2004 10 10.21564 00 42 35.43 +11 23 32.2 20.1   704 – Lincoln Laboratory ETS, New Mexico MPS 158908
2004 10 10.22725 00 42 34.79 +11 23 32.6 19.9   704 – Lincoln Laboratory ETS, New Mexico MPS 158908
2004 10 10.23848 00 42 34.17 +11 23 29.1 19.5   704 – Lincoln Laboratory ETS, New Mexico MPS 158908
2004 10 10.25019 00 42 33.39 +11 23 27.5 19.9   704 – Lincoln Laboratory ETS, New Mexico MPS 158908
2006 01 05.35784 09 55 55.51 +21 24 07.1 20.1   704 – Lincoln Laboratory ETS, New Mexico MPS 158908
2006 01 05.37059 09 55 55.08 +21 24 08.8 19.9   704 – Lincoln Laboratory ETS, New Mexico MPS 158908
2006 01 05.38339 09 55 54.83 +21 24 09.6 19.7   704 – Lincoln Laboratory ETS, New Mexico MPS 158908
2006 01 05.39631 09 55 54.41 +21 24 10.6 20.0   704 – Lincoln Laboratory ETS, New Mexico MPS 158908
2006 01 06.34857 09 55 31.29 +21 25 46.6 19.6 R 699 – Lowell Observatory-LONEOS MPS 158908
2006 01 06.37510 09 55 30.53 +21 25 50.4   699 – Lowell Observatory-LONEOS MPS 158908
2006 01 06.40161 09 55 29.91 +21 25 52.8   699 – Lowell Observatory-LONEOS MPS 158908
2006 01 06.42813 09 55 29.10 +21 25 54.9   699 – Lowell Observatory-LONEOS MPS 158908
2006 01 26.34821 09 41 23.96 +22 08 21.5 19.6 V 703 – Catalina Sky Survey MPS 160366
2006 01 26.35572 09 41 23.46 +22 08 22.2 19.6 V 703 – Catalina Sky Survey MPS 160366
2006 01 26.36324 09 41 22.84 +22 08 22.6 18.9 V 703 – Catalina Sky Survey MPS 160366
2006 01 26.37082 09 41 22.38 +22 08 22.8 18.9 V 703 – Catalina Sky Survey MPS 160366
2006 02 22.22211 09 14 01.46 +22 33 48.2 20.2 V 703 – Catalina Sky Survey MPS 163737
2006 02 22.23499 09 14 00.74 +22 33 48.2 19.9 V 703 – Catalina Sky Survey MPS 163737
2006 02 22.24325 09 14 00.31 +22 33 47.9 19.4 V 703 – Catalina Sky Survey MPS 163737
2006 02 22.25154 09 13 59.88 +22 33 47.9 20.3 V 703 – Catalina Sky Survey MPS 163737
2006 05 03.13986 09 16 00.40 +17 16 11.3 20.5 V G96 – Mt. Lemmon Survey MPS 170782
2006 05 03.14641 09 16 00.73 +17 16 08.3 20.6 V G96 – Mt. Lemmon Survey MPS 170782
2006 05 03.15290 09 16 01.05 +17 16 05.7 21.6 V G96 – Mt. Lemmon Survey MPS 170782
2006 05 03.15942 09 16 01.41 +17 16 02.5 20.8 V G96 – Mt. Lemmon Survey MPS 170782
2006 05 25.17272 09 38 56.50 +14 24 05.4 21.8 V G96 – Mt. Lemmon Survey MPS 171949
2006 05 25.17851 09 38 56.90 +14 24 02.9 21.7 V G96 – Mt. Lemmon Survey MPS 171949
2006 05 25.18428 09 38 57.30 +14 24 00.0 21.4 V G96 – Mt. Lemmon Survey MPS 171949
2006 05 25.18998 09 38 57.73 +14 23 57.2 21.7 V G96 – Mt. Lemmon Survey MPS 171949
2008 08 07.35594 23 21 28.93 -06 41 21.3   691 – Steward Observatory, Kitt Peak-Spacewatch MPS 253496
2008 08 07.37353 23 21 28.29 -06 41 22.3   691 – Steward Observatory, Kitt Peak-Spacewatch MPS 253496
2008 08 07.39111 23 21 27.70 -06 41 24.4   691 – Steward Observatory, Kitt Peak-Spacewatch MPS 253496
2008 09 20.21704 22 45 06.98 -08 24 21.4 20.6 V G96 – Mt. Lemmon Survey MPS 256584
2008 09 20.22594 22 45 06.51 -08 24 22.5 20.3 V G96 – Mt. Lemmon Survey MPS 256584
2008 09 20.23499 22 45 06.04 -08 24 23.6 19.9 V G96 – Mt. Lemmon Survey MPS 256584
2008 09 20.24382 22 45 05.58 -08 24 24.6 20.6 V G96 – Mt. Lemmon Survey MPS 256584
2011 04 13.49417 14 25 51.334 -24 56 27.97 20.1 r F51 – Pan-STARRS 1, Haleakala MPS 379530
2011 04 13.50465 14 25 50.740 -24 56 27.83 20.2 r F51 – Pan-STARRS 1, Haleakala MPS 379530
2011 04 13.51662 14 25 50.056 -24 56 27.52 20.8 g F51 – Pan-STARRS 1, Haleakala MPS 379530
2011 04 13.52765 14 25 49.443 -24 56 27.27 20.6 g F51 – Pan-STARRS 1, Haleakala MPS 379530
2011 04 26.30000 14 13 26.86 -24 38 39.7 19.6 V G96 – Mt. Lemmon Survey MPS 380978
2011 04 26.30752 14 13 26.40 -24 38 38.7 19.9 V G96 – Mt. Lemmon Survey MPS 380978
2011 04 26.31502 14 13 25.93 -24 38 37.9 19.7 V G96 – Mt. Lemmon Survey MPS 380978
2011 04 26.32309 14 13 25.42 -24 38 36.4 19.9 V G96 – Mt. Lemmon Survey MPS 380978
2012 08 12.41308 21 06 18.141 -24 08 17.11 20.6 g F51 – Pan-STARRS 1, Haleakala MPS 429866
2012 08 12.42346 21 06 17.499 -24 08 17.95 20.4 g F51 – Pan-STARRS 1, Haleakala MPS 429866
2013 07 13.58646 02 37 48.207 +20 12 11.67 21.7 w F51 – Pan-STARRS 1, Haleakala MPS 472473
2013 07 13.59132 02 37 48.580 +20 12 14.16 21.9 w F51 – Pan-STARRS 1, Haleakala MPS 472473
2013 07 13.59680 02 37 48.981 +20 12 16.85 21.7 w F51 – Pan-STARRS 1, Haleakala MPS 472473
2013 07 13.60165 02 37 49.359 +20 12 19.53 21.8 w F51 – Pan-STARRS 1, Haleakala MPS 472473
2013 07 18.59810 02 44 01.745 +20 54 24.99 21.9 w F51 – Pan-STARRS 1, Haleakala MPS 472473
2013 07 18.60230 02 44 02.052 +20 54 26.96 21.6 w F51 – Pan-STARRS 1, Haleakala MPS 472473
2013 07 18.60646 02 44 02.352 +20 54 29.05 21.7 w F51 – Pan-STARRS 1, Haleakala MPS 472473
2013 07 18.61063 02 44 02.645 +20 54 31.23 21.7 w F51 – Pan-STARRS 1, Haleakala MPS 472473
2013 10 12.30456 03 30 24.89 +29 54 41.5 19.9 R 926 – Tenagra II Observatory, Nogales MPS 481773
2013 10 12.31913 03 30 24.47 +29 54 44.0 20.0 R 926 – Tenagra II Observatory, Nogales MPS 481773
2013 10 12.33709 03 30 23.82 +29 54 47.6 20.5 R 926 – Tenagra II Observatory, Nogales MPS 481773
2013 10 15.43781 03 28 36.75 +30 03 50.6 20.0 V 703 – Catalina Sky Survey MPS 481773
2013 10 15.44506 03 28 36.60 +30 03 51.9 19.8 V 703 – Catalina Sky Survey MPS 481773
2013 10 15.45243 03 28 36.33 +30 03 52.4 20.0 V 703 – Catalina Sky Survey MPS 481773
2013 10 15.45969 03 28 36.03 +30 03 53.6 20.9 V 703 – Catalina Sky Survey MPS 481773
2013 10 24.36218 03 22 01.18 +30 21 33.2 19.3 V 703 – Catalina Sky Survey MPS 483275
